Weather History for KMRB - January, 2014

Change the Weather History Date:

Thursday, January 2, 2014

  Actual Average Record
Temperature  
Mean Temperature 30 °F 31 °F  
Max Temperature 33 °F 40 °F 71 °F (2000)
Min Temperature 26 °F 23 °F -13 °F (1968)
Degree Days  
Heating Degree Days 35 34  
Month to date heating degree days 64 68  
Since 1 July heating degree days 2012 2094  
Cooling Degree Days 0 0  
Month to date cooling degree days 0 0  
Year to date cooling degree days 0 0  
Moisture  
Dew Point 25 °F    
Average Humidity 79    
Maximum Humidity 92    
Minimum Humidity 66    
Precipitation  
Precipitation 0.05 in 0.07 in 1.29 in (2006)
Month to date precipitation 0.05 0.14  
Year to date precipitation 0.05 0.14  
Sea Level Pressure  
Sea Level Pressure 29.80 in    
Wind  
Wind Speed 6 mph (NNE)    
Max Wind Speed 15 mph    
Max Gust Speed 19 mph    
Visibility 3 miles    
Events Fog , Snow    
T = Trace of Precipitation, MM = Missing Value Source: NWS Daily Summary

Daily Weather History Graph

Daily Weather History Graph

Search for Another Location

Airport or City:

Trip Planner

Search our weather history database for the weather conditions in past years. The results will help you decide how hot, cold, wet, or windy it might be!

Date:

Astronomy

Jan. 02, 2014 Rise Set
Actual Time 7:32 AM EST 5:00 PM EST
Civil Twilight 7:02 AM EST 5:30 PM EST
Nautical Twilight 6:28 AM EST 6:03 PM EST
Astronomical Twilight 5:55 AM EST 6:36 PM EST
Moon 8:12 AM EST (1/2) 6:54 PM EST (1/2)
Length of Visible Light 10h 28m
Length of Day
9h 27m
New Moon, 2% of the Moon is Illuminated
Jan 2
New Moon
Jan 7
First Quarter
Jan 15
Full
Jan 24
Last Quarter
Jan 30
New

Hourly Weather History & Observations

Time (EST) Temp. Windchill Dew Point Humidity Pressure Visibility Wind Dir Wind Speed Gust Speed Precip Events Conditions
12:53 AM 30.9 °F 25.2 °F 21.9 °F 69% 30.09 in 9.0 mi North 5.8 mph - N/A   Clear
1:53 AM 30.9 °F 26.2 °F 21.9 °F 69% 30.08 in 9.0 mi North 4.6 mph - N/A   Clear
2:53 AM 30.9 °F 25.2 °F 23.0 °F 72% 30.07 in 9.0 mi North 5.8 mph - N/A   Clear
3:53 AM 28.9 °F 23.9 °F 21.9 °F 75% 30.05 in 8.0 mi North 4.6 mph - N/A   Clear
4:53 AM 28.9 °F 21.9 °F 21.9 °F 75% 30.03 in 8.0 mi NNE 6.9 mph - N/A   Clear
5:53 AM 28.0 °F 21.7 °F 21.0 °F 75% 30.01 in 8.0 mi NNE 5.8 mph - N/A   Clear
6:53 AM 27.0 °F 23.0 °F 19.9 °F 75% 30.00 in 7.0 mi NE 3.5 mph - N/A   Clear
7:53 AM 27.0 °F 21.6 °F 21.0 °F 78% 30.00 in 6.0 mi North 4.6 mph - N/A   Haze
8:53 AM 28.9 °F 23.9 °F 21.9 °F 75% 29.99 in 6.0 mi North 4.6 mph - N/A   Haze
9:12 AM 28.9 °F 21.9 °F 21.9 °F 75% 29.97 in 1.2 mi NNE 6.9 mph - N/A   Haze
9:17 AM 28.9 °F 22.8 °F 21.9 °F 75% 29.96 in 4.0 mi NNE 5.8 mph - N/A   Haze
9:53 AM 30.0 °F 23.2 °F 21.9 °F 72% 29.97 in 7.0 mi North 6.9 mph - N/A   Overcast
10:53 AM 32.0 °F 24.8 °F 23.0 °F 69% 29.94 in 6.0 mi NNE 8.1 mph - N/A   Haze
11:53 AM 32.0 °F 26.4 °F 23.0 °F 69% 29.87 in 6.0 mi NE 5.8 mph - N/A   Haze
12:53 PM 32.0 °F - 24.1 °F 73% 29.83 in 6.0 mi Calm Calm - N/A   Haze
1:16 PM 32.0 °F 26.4 °F 25.0 °F 75% 29.80 in 1.8 mi North 5.8 mph - 0.00 in Snow Light Snow
1:25 PM 32.0 °F 28.7 °F 26.1 °F 79% 29.79 in 1.2 mi North 3.5 mph - 0.00 in Snow Light Snow
1:37 PM 30.9 °F - 26.1 °F 82% 29.79 in 0.5 mi Calm Calm - 0.00 in Snow Snow
1:42 PM 30.9 °F - 27.0 °F 85% 29.79 in 0.2 mi Calm Calm - 0.00 in Fog , Snow Heavy Snow
1:53 PM 30.0 °F - 27.0 °F 88% 29.81 in 0.2 mi Calm Calm - 0.00 in Fog , Snow Heavy Snow
2:10 PM 30.0 °F - 27.0 °F 88% 29.77 in 0.5 mi Calm Calm - 0.00 in Fog , Snow Snow
2:19 PM 30.9 °F - 28.0 °F 89% 29.76 in 0.2 mi Calm Calm - 0.00 in Fog , Snow Snow
2:31 PM 30.9 °F - 28.0 °F 89% 29.75 in 0.5 mi Calm Calm - 0.00 in Fog , Snow Snow
2:53 PM 30.9 °F 26.2 °F 27.0 °F 85% 29.75 in 0.8 mi NE 4.6 mph - 0.01 in Snow Light Snow
3:16 PM 30.9 °F 26.2 °F 28.0 °F 89% 29.74 in 0.5 mi NNE 4.6 mph - 0.01 in Fog , Snow Snow
3:23 PM 30.9 °F 26.2 °F 28.0 °F 89% 29.73 in 0.5 mi NNE 4.6 mph - 0.01 in Fog , Snow Snow
3:30 PM 30.9 °F 27.5 °F 28.0 °F 89% 29.73 in 0.2 mi NNE 3.5 mph - 0.01 in Fog , Snow Snow
3:53 PM 30.0 °F 24.1 °F 28.0 °F 92% 29.73 in 0.2 mi North 5.8 mph - 0.02 in Fog , Snow Heavy Snow
4:48 PM 30.2 °F 25.4 °F 26.6 °F 86% 29.69 in 0.5 mi North 4.6 mph - 0.00 in Fog , Snow Light Snow
4:53 PM 30.0 °F 26.5 °F 27.0 °F 88% 29.71 in 0.5 mi North 3.5 mph - 0.00 in Fog , Snow Light Snow
5:05 PM 30.0 °F 25.2 °F 27.0 °F 88% 29.69 in 1.5 mi North 4.6 mph - 0.01 in Snow Light Snow
5:24 PM 30.0 °F 24.1 °F 27.0 °F 88% 29.69 in 1.2 mi NNW 5.8 mph - 0.01 in Snow Light Snow
5:53 PM 30.0 °F 23.2 °F 27.0 °F 88% 29.70 in 1.2 mi North 6.9 mph - 0.01 in Snow Light Snow
6:03 PM 30.0 °F 25.2 °F 27.0 °F 88% 29.67 in 1.2 mi North 4.6 mph - 0.00 in Snow Light Snow
6:27 PM 30.0 °F 23.2 °F 27.0 °F 88% 29.67 in 1.5 mi North 6.9 mph - 0.00 in Snow Light Snow
6:40 PM 30.0 °F 23.2 °F 27.0 °F 88% 29.67 in 1.5 mi North 6.9 mph - 0.00 in Snow Light Snow
6:53 PM 30.0 °F 22.4 °F 27.0 °F 88% 29.69 in 1.8 mi NNE 8.1 mph - 0.00 in Snow Light Snow
7:04 PM 30.0 °F 22.4 °F 27.0 °F 88% 29.67 in 2.0 mi NNE 8.1 mph - 0.00 in Snow Light Snow
7:13 PM 30.0 °F 24.1 °F 27.0 °F 88% 29.68 in 1.8 mi North 5.8 mph - 0.00 in Snow Light Snow
7:53 PM 28.9 °F 21.1 °F 26.1 °F 89% 29.69 in 1.2 mi North 8.1 mph - 0.00 in Snow Light Snow
8:32 PM 28.9 °F 20.4 °F 25.0 °F 85% 29.65 in 1.5 mi North 9.2 mph - 0.00 in Snow Light Snow
8:53 PM 28.0 °F 19.3 °F 25.0 °F 88% 29.68 in 1.5 mi North 9.2 mph - 0.00 in Snow Light Snow
9:33 PM 28.0 °F 18.6 °F 24.1 °F 85% 29.67 in 2.5 mi North 10.4 mph - 0.00 in Snow Light Snow
9:44 PM 28.0 °F 20.8 °F 24.1 °F 85% 29.67 in 3.0 mi NNE 6.9 mph - 0.00 in Snow Light Snow
9:53 PM 27.0 °F 18.0 °F 24.1 °F 89% 29.68 in 3.0 mi NNE 9.2 mph - 0.00 in   Overcast
10:12 PM 27.0 °F 15.6 °F 21.9 °F 81% 29.67 in 6.0 mi North 13.8 mph - 0.01 in   Haze
10:39 PM 27.0 °F 17.3 °F 21.9 °F 81% 29.67 in 7.0 mi North 10.4 mph - 0.01 in   Overcast
10:53 PM 27.0 °F 15.6 °F 21.0 °F 78% 29.70 in 8.0 mi North 13.8 mph - 0.01 in   Overcast
11:53 PM 26.1 °F 20.5 °F 21.9 °F 84% 29.70 in 7.0 mi NNE 4.6 mph - N/A   Overcast